| time (UTC) | temp F | wind direction | speed knots | gust knots | rain 1hr in | rain 24hr in | rain mn in | humidity % | barometer mb |
| 20260510220037 | 87 | 254 | 0.0 | 5.2 | 0.00 | 0.16 | 0.16 | 62 | 1016.7 |
| 20260510214537 | 87 | 214 | 1.7 | 6.1 | 0.00 | 0.16 | 0.16 | 61 | 1016.7 |
| 20260510213035 | 88 | 0 | 0.9 | 6.1 | 0.00 | 0.16 | 0.16 | 61 | 1016.8 |
| 20260510211537 | 88 | 265 | 1.7 | 7.8 | 0.00 | 0.16 | 0.16 | 61 | 1016.9 |
| 20260510210034 | 88 | 319 | 0.9 | 7.0 | 0.00 | 0.16 | 0.16 | 60 | 1016.9 |
| 20260510204539 | 88 | 257 | 0.9 | 7.8 | 0.00 | 0.16 | 0.16 | 59 | 1016.8 |
| 20260510203035 | 89 | 265 | 1.7 | 7.8 | 0.00 | 0.16 | 0.16 | 57 | 1016.7 |
| 20260510201538 | 89 | 294 | 0.9 | 7.0 | 0.00 | 0.16 | 0.16 | 57 | 1016.6 |
| 20260510200105 | 91 | 252 | 2.6 | 7.0 | 0.00 | 0.16 | 0.16 | 55 | 1016.6 |
| 20260510194543 | 90 | 227 | 2.6 | 10.4 | 0.00 | 0.16 | 0.16 | 55 | 1016.7 |
| 20260510193044 | 91 | 0 | 1.7 | 9.6 | 0.00 | 0.16 | 0.16 | 54 | 1016.6 |
| 20260510191541 | 90 | 155 | 1.7 | 7.8 | 0.00 | 0.16 | 0.16 | 57 | 1016.7 |
| 20260510190035 | 91 | 269 | 0.9 | 6.1 | 0.00 | 0.16 | 0.16 | 59 | 1016.6 |
| 20260510184533 | 90 | 0 | 0.9 | 8.7 | 0.00 | 0.16 | 0.16 | 59 | 1016.7 |
| 20260510183044 | 90 | 323 | 0.9 | 8.7 | 0.00 | 0.16 | 0.16 | 58 | 1016.9 |
| 20260510181535 | 92 | 138 | 1.7 | 7.8 | 0.00 | 0.16 | 0.16 | 56 | 1017.0 |
| 20260510180037 | 91 | 152 | 3.5 | 9.6 | 0.00 | 0.16 | 0.16 | 57 | 1017.3 |
| 20260510174539 | 90 | 0 | 0.9 | 7.0 | 0.00 | 0.16 | 0.16 | 60 | 1017.5 |
| 20260510173034 | 90 | 242 | 0.9 | 7.8 | 0.00 | 0.16 | 0.16 | 58 | 1017.7 |
| 20260510171551 | 91 | 214 | 1.7 | 6.1 | 0.00 | 0.16 | 0.16 | 56 | 1017.8 |
| 20260510170033 | 90 | 217 | 1.7 | 7.0 | 0.00 | 0.16 | 0.16 | 58 | 1018.0 |
| 20260510164543 | 90 | 236 | 0.9 | 8.7 | 0.00 | 0.16 | 0.16 | 58 | 1018.0 |
| 20260510163040 | 90 | 107 | 0.9 | 4.3 | 0.00 | 0.16 | 0.16 | 61 | 1018.0 |
| 20260510161535 | 89 | 238 | 0.0 | 7.8 | 0.00 | 0.16 | 0.16 | 62 | 1018.2 |
| 20260510160036 | 88 | 0 | 0.9 | 7.8 | 0.00 | 0.16 | 0.16 | 68 | 1018.3 |
| 20260510154540 | 88 | 311 | 0.0 | 7.0 | 0.00 | 0.16 | 0.16 | 68 | 1018.3 |
| 20260510153039 | 88 | 116 | 1.7 | 6.1 | 0.00 | 0.16 | 0.16 | 68 | 1018.1 |
| 20260510151542 | 87 | 186 | 1.7 | 7.8 | 0.00 | 0.16 | 0.16 | 69 | 1018.2 |
| 20260510150039 | 86 | 259 | 1.7 | 6.1 | 0.00 | 0.16 | 0.16 | 72 | 1018.2 |
| 20260510144534 | 84 | 146 | 0.9 | 5.2 | 0.00 | 0.16 | 0.16 | 74 | 1018.3 |
| 20260510143036 | 84 | 268 | 0.9 | 6.1 | 0.00 | 0.16 | 0.16 | 76 | 1018.3 |
| 20260510141534 | 84 | 161 | 0.9 | 7.8 | 0.00 | 0.16 | 0.16 | 76 | 1018.2 |
| 20260510140034 | 83 | 145 | 0.9 | 6.1 | 0.00 | 0.16 | 0.16 | 80 | 1018.0 |
| 20260510134538 | 82 | 173 | 0.0 | 4.3 | 0.00 | 0.16 | 0.16 | 82 | 1018.0 |
| 20260510133044 | 80 | 126 | 0.0 | 4.3 | 0.00 | 0.16 | 0.16 | 86 | 1018.0 |
| 20260510131535 | 79 | 0 | 0.0 | 2.6 | 0.00 | 0.16 | 0.16 | 90 | 1017.9 |
| 20260510130034 | 77 | 141 | 0.0 | 2.6 | 0.00 | 0.16 | 0.16 | 92 | 1017.9 |
| 20260510124532 | 76 | 0 | 0.0 | 2.6 | 0.00 | 0.16 | 0.16 | 96 | 1017.9 |
| 20260510123032 | 75 | 0 | 0.0 | 0.9 | 0.00 | 0.16 | 0.16 | 97 | 1017.7 |
| 20260510121537 | 75 | 0 | 0.0 | 0.0 | 0.00 | 0.16 | 0.16 | 97 | 1017.7 |
| 20260510120038 | 74 | 0 | 0.0 | 0.0 | 0.00 | 0.16 | 0.16 | 97 | 1017.5 |
| 20260510114536 | 73 | 0 | 0.0 | 0.0 | 0.00 | 0.16 | 0.16 | 97 | 1017.2 |
| 20260510113041 | 73 | 0 | 0.0 | 0.0 | 0.00 | 0.16 | 0.16 | 96 | 1017.0 |
| 20260510111533 | 72 | 0 | 0.0 | 0.0 | 0.00 | 0.16 | 0.16 | 95 | 1016.8 |
| 20260510110033 | 72 | 0 | 0.0 | 0.0 | 0.00 | 0.16 | 0.16 | 94 | 1016.5 |
| 20260510104541 | 72 | 0 | 0.0 | 0.0 | 0.00 | 0.16 | 0.16 | 94 | 1016.3 |
| 20260510103034 | 73 | 0 | 0.0 | 0.0 | 0.00 | 0.16 | 0.16 | 94 | 1015.9 |
| 20260510101534 | 73 | 0 | 0.0 | 0.0 | 0.00 | 0.16 | 0.16 | 94 | 1015.6 |
| 20260510100035 | 73 | 0 | 0.0 | 0.0 | 0.00 | 0.16 | 0.16 | 94 | 1015.5 |
| 20260510094532 | 73 | 0 | 0.0 | 0.0 | 0.00 | 0.16 | 0.16 | 93 | 1015.5 |
| 20260510093034 | 73 | 0 | 0.0 | 0.0 | 0.00 | 0.16 | 0.16 | 93 | 1015.3 |
| 20260510091533 | 73 | 0 | 0.0 | 0.0 | 0.00 | 0.16 | 0.16 | 93 | 1015.1 |
| 20260510090039 | 73 | 0 | 0.0 | 0.0 | 0.00 | 0.16 | 0.16 | 93 | 1014.9 |
| 20260510084535 | 74 | 0 | 0.0 | 0.0 | 0.00 | 0.16 | 0.16 | 93 | 1014.7 |
| 20260510083034 | 74 | 0 | 0.0 | 1.7 | 0.00 | 0.16 | 0.16 | 93 | 1014.8 |
| 20260510081539 | 74 | 0 | 0.0 | 0.0 | 0.00 | 0.16 | 0.16 | 93 | 1014.9 |
| 20260510080032 | 74 | 0 | 0.0 | 0.0 | 0.00 | 0.16 | 0.16 | 92 | 1014.9 |
| 20260510074532 | 74 | 0 | 0.0 | 0.0 | 0.00 | 0.16 | 0.16 | 92 | 1014.9 |
| 20260510073040 | 74 | 0 | 0.0 | 0.0 | 0.00 | 0.16 | 0.16 | 90 | 1015.1 |
| 20260510071534 | 75 | 0 | 0.0 | 0.0 | 0.00 | 0.16 | 0.16 | 90 | 1015.2 |
| 20260510070035 | 75 | 0 | 0.0 | 0.0 | 0.01 | 0.16 | 0.16 | 89 | 1015.4 |
| 20260510064542 | 75 | 0 | 0.0 | 0.0 | 0.10 | 0.16 | 0.16 | 88 | 1015.3 |
| 20260510063039 | 75 | 0 | 0.0 | 0.0 | 0.16 | 0.16 | 0.16 | 87 | 1015.5 |
| 20260510061533 | 75 | 0 | 0.0 | 0.0 | 0.16 | 0.16 | 0.16 | 85 | 1015.8 |
| 20260510060033 | 76 | 0 | 0.0 | 0.0 | 0.15 | 0.15 | 0.15 | 83 | 1016.3 |
| 20260510054534 | 77 | 0 | 0.0 | 1.7 | 0.05 | 0.05 | 0.05 | 78 | 1016.4 |
| 20260510053037 | 78 | 111 | 0.0 | 4.3 | 0.00 | 0.00 | 0.00 | 75 | 1016.5 |
| 20260510051544 | 78 | 108 | 0.0 | 1.7 | 0.00 | 0.00 | 0.00 | 76 | 1016.4 |
| 20260510050043 | 77 | 0 | 0.0 | 0.0 | 0.00 | 0.00 | 0.00 | 79 | 1016.7 |
| 20260510044547 | 77 | 0 | 0.0 | 0.0 | 0.00 | 0.00 | 0.00 | 78 | 1016.5 |
| 20260510043036 | 77 | 0 | 0.0 | 0.0 | 0.00 | 0.00 | 0.00 | 78 | 1016.6 |
| 20260510041534 | 77 | 0 | 0.0 | 0.0 | 0.00 | 0.00 | 0.00 | 78 | 1016.7 |
| 20260510040049 | 78 | 0 | 0.0 | 0.0 | 0.00 | 0.00 | 0.00 | 77 | 1016.6 |
| 20260510034541 | 78 | 0 | 0.0 | 0.0 | 0.00 | 0.00 | 0.00 | 75 | 1016.3 |
| 20260510033045 | 78 | 0 | 0.0 | 0.0 | 0.00 | 0.00 | 0.00 | 75 | 1016.2 |
| 20260510031551 | 79 | 0 | 0.0 | 1.7 | 0.00 | 0.00 | 0.00 | 74 | 1016.4 |
| 20260510030040 | 79 | 0 | 0.0 | 0.0 | 0.00 | 0.00 | 0.00 | 75 | 1016.2 |
| 20260510024538 | 79 | 0 | 0.0 | 1.7 | 0.00 | 0.00 | 0.00 | 75 | 1016.2 |
| 20260510023041 | 79 | 0 | 0.0 | 0.9 | 0.00 | 0.00 | 0.00 | 75 | 1016.2 |
| 20260510021541 | 78 | 0 | 0.0 | 0.0 | 0.00 | 0.00 | 0.00 | 74 | 1016.1 |
| 20260510020040 | 79 | 0 | 0.0 | 0.0 | 0.00 | 0.00 | 0.00 | 74 | 1016.0 |
| 20260510014536 | 79 | 0 | 0.0 | 0.9 | 0.00 | 0.00 | 0.00 | 74 | 1015.9 |
| 20260510013035 | 80 | 0 | 0.0 | 1.7 | 0.00 | 0.00 | 0.00 | 72 | 1015.7 |
| 20260510011541 | 80 | 0 | 0.0 | 0.9 | 0.00 | 0.00 | 0.00 | 71 | 1015.5 |
| 20260510010042 | 81 | 0 | 0.0 | 2.6 | 0.00 | 0.00 | 0.00 | 70 | 1015.3 |
| 20260510004533 | 81 | 0 | 0.0 | 1.7 | 0.00 | 0.00 | 0.00 | 67 | 1015.1 |
| 20260510003047 | 82 | 0 | 0.0 | 0.0 | 0.00 | 0.00 | 0.00 | 65 | 1015.0 |
| 20260510001537 | 82 | 0 | 0.0 | 4.3 | 0.00 | 0.00 | 0.00 | 62 | 1014.6 |
| 20260510000037 | 83 | 238 | 0.0 | 6.1 | 0.00 | 0.00 | 0.00 | 61 | 1014.5 |
| 20260509234536 | 84 | 0 | 0.0 | 3.5 | 0.00 | 0.00 | 0.00 | 58 | 1014.3 |
| 20260509233034 | 85 | 0 | 0.0 | 3.5 | 0.00 | 0.00 | 0.00 | 55 | 1014.1 |
| 20260509231541 | 86 | 0 | 0.0 | 3.5 | 0.00 | 0.00 | 0.00 | 53 | 1013.9 |
| 20260509230041 | 87 | 289 | 0.0 | 3.5 | 0.00 | 0.00 | 0.00 | 52 | 1013.8 |
| 20260509224549 | 87 | 0 | 0.0 | 5.2 | 0.00 | 0.00 | 0.00 | 52 | 1013.7 |
| 20260509223037 | 88 | 202 | 0.0 | 6.1 | 0.00 | 0.00 | 0.00 | 49 | 1013.5 |
| 20260509221537 | 89 | 192 | 0.0 | 7.0 | 0.00 | 0.00 | 0.00 | 47 | 1013.4 |